[[{"header":{"parameterUnit":"m.s-1","parameterCategory":1,"la1":30.2991,"la2":30.254,"lo1":-89.0895,"lo2":-89.0444,"dy":0.0017,"dx":0.0017,"nx":28,"ny":28,"refTime":"2025-07-16T21:00:00:Z","depth":0,"parameterNumber":2,"parameterNumberName":"U-component_of_WINDS"},"data":[0,0,0,0,0,0,0,0,0,0,0,0,0,0,0,0,0,0,0,0,0,0,0,0,0,0,0,0,0,0,0,0,0,0,0,0,0,0,0,0,0,0,0,0,0,0,0,0,0,0,0,0,0,0,0,0,0,0,0.7207,0.7204,0,0.6873,0.6869,0.6865,0.6682,0.6681,0.6681,0.668,0.6331,0.6322,0.6313,0,0,0,0,0,0,0,0,0,0,0,0,0,0.7682,0.7674,0.7208,0.7204,0.7199,0.6873,0.6869,0.6864,0.6682,0.6681,0.6681,0.668,0.6334,0.6323,0.6313,0,0,0,0,0,0,0,0,0,0,0,0,0,0.7424,0.7671,0.7209,0.7069,0.7053,0.6874,0.6869,0.6863,0.6682,0.6681,0.668,0.668,0.6337,0.6324,0.6311,0.6243,0,0,0.6271,0.6265,0,0,0,0,0,0,0,0,0.7439,0.7407,0.7094,0.7079,0.7061,0.6818,0.6907,0.6655,0.6682,0.6823,0.668,0.6679,0.6493,0.6467,0.6405,0.6226,0.6211,0.6269,0.6261,0.6256,0.6252,0,0,0,0,0,0,0,0.7457,0.742,0.7075,0.709,0.7069,0.7021,0.6984,0.6859,0.6666,0.681,0.6796,0.676,0.6484,0.6419,0.6396,0.6206,0.627,0.6258,0.625,0.6244,0.595,0.5951,0,0,0,0,0,0,0.7498,0.7437,0.7086,0.7065,0.7252,0.7013,0.6971,0.6897,0.6667,0.6631,0.6761,0.6752,0.6442,0.6412,0.6383,0.6285,0.6256,0.6243,0.6236,0.595,0.595,0.5951,0,0,0,0,0,0,0.7509,0.7469,0.7099,0.7247,0.7196,0.7006,0.6923,0.689,0.6825,0.6629,0.6593,0.673,0.644,0.6402,0.6279,0.627,0.6237,0.6225,0.595,0.595,0.5951,0.6091,0,0,0,0,0,0,0.7524,0.7474,0.7448,0.7248,0.7189,0.7003,0.6923,0.6884,0.6803,0.679,0.6591,0.6557,0.6437,0.63,0.6266,0.6251,0.6215,0.595,0.595,0.595,0.6086,0.6096,0.6104,0,0,0,0,0,0.7541,0.75,0.7448,0.7406,0.7153,0.7003,0.6969,0.6833,0.6804,0.6774,0.6648,0.6563,0.6278,0.6289,0.6249,0.6231,0.595,0.595,0.595,0.6082,0.6094,0.6104,0,0,0,0,0,0,0.7702,0.7471,0.741,0.7304,0.7175,0.6973,0.6932,0.6851,0.6726,0.6718,0.6553,0.6509,0.6401,0.6303,0.632,0.615,0.6104,0.6097,0.6218,0.6228,0.6237,0.6262,0.6204,0,0,0,0,0,0.7726,0.7626,0.7429,0.7353,0.7292,0.7124,0.7053,0.696,0.6819,0.6762,0.6627,0.6491,0.637,0.6294,0.6172,0.6072,0.6024,0.6039,0.6049,0.6057,0.6052,0.5988,0.5992,0.5952,0.5952,0.5952,0,0,0.7773,0.7634,0.7581,0.7382,0.7271,0.7169,0.7079,0.6975,0.6896,0.6746,0.6621,0.6517,0.6354,0.6242,0.6186,0.6157,0.6052,0.6058,0.6066,0.6055,0.5989,0.5993,0.5997,0.5952,0.5952,0.5952,0,0,0.7805,0.7692,0.7615,0.7506,0.734,0.7228,0.721,0.7019,0.6945,0.6818,0.6702,0.6605,0.6401,0.6289,0.6206,0.6195,0.6111,0.616,0.6207,0.6147,0.615,0.6152,0.6145,0.6145,0.6156,0.6156,0.6156,0,0.7883,0.7726,0.7585,0.7487,0.7402,0.7264,0.7183,0.7083,0.6885,0.6828,0.68,0.654,0.642,0.6279,0.6276,0.6214,0.6185,0.6181,0.6161,0.6162,0.6161,0.6153,0.6151,0.6163,0.6162,0.6161,0.6161,0,0.7829,0.7722,0.768,0.7494,0.7404,0.7316,0.7158,0.7084,0.6998,0.6889,0.676,0.6612,0.6457,0.6416,0.6331,0.6261,0.6248,0.6194,0.6143,0.6174,0.6163,0.6159,0.6172,0.617,0.6168,0.6166,0,0,0.7953,0.769,0.7676,0.7589,0.7395,0.7308,0.7212,0.7062,0.7,0.6868,0.6781,0.6611,0.6558,0.6464,0.6365,0.6313,0.631,0.6262,0.6256,0.6274,0.622,0.6261,0.626,0.6254,0.6253,0.6252,0.6233,0,0.7955,0.7779,0.7648,0.752,0.7417,0.7284,0.72,0.707,0.6966,0.6861,0.6744,0.6625,0.6566,0.6507,0.645,0.6323,0.6296,0.6323,0.6168,0.6165,0.6211,0.6255,0.6298,0.6287,0.6228,0.6227,0.6227,0,0.7934,0.7808,0.7671,0.7485,0.7437,0.7365,0.7215,0.7118,0.6967,0.6894,0.6789,0.6687,0.6577,0.6539,0.6383,0.6404,0.6333,0.6261,0.6257,0.6235,0.6196,0.6231,0.628,0.6278,0.6219,0.622,0.622,0,0.8035,0.783,0.7721,0.7651,0.7433,0.7384,0.7291,0.7139,0.7057,0.6926,0.687,0.6728,0.6649,0.654,0.6401,0.6387,0.6258,0.6209,0.6191,0.6195,0.6168,0.6171,0.6203,0.6128,0.6128,0.6128,0.6128,0,0.8049,0.797,0.7763,0.7695,0.7601,0.7451,0.7361,0.7256,0.7122,0.703,0.6906,0.6821,0.6644,0.6537,0.6428,0.6313,0.6279,0.6215,0.6186,0.6224,0.6232,0.6174,0.617,0.6127,0.6127,0.6127,0.6127,0,0.8145,0.8004,0.7875,0.768,0.7629,0.7568,0.7398,0.7326,0.7215,0.7099,0.7063,0.6887,0.6755,0.6606,0.6424,0.635,0.6242,0.6202,0.6294,0.6277,0.6266,0.6268,0.6259,0.6249,0.6185,0.6186,0.6187,0,0.8163,0.8098,0.7896,0.7826,0.7737,0.7626,0.7541,0.739,0.7307,0.7129,0.7078,0.6937,0.6815,0.6609,0.6463,0.6322,0.6276,0.6283,0.6254,0.6294,0.6273,0.6277,0.6269,0.6291,0.6292,0.6294,0.6295,0,0.8208,0.8141,0.8025,0.7884,0.7787,0.7668,0.7543,0.7493,0.7316,0.7228,0.7092,0.6999,0.6813,0.6672,0.6514,0.6414,0.6324,0.6305,0.6293,0.633,0.6384,0.6352,0.6313,0.6305,0.6304,0.6304,0.6303,0.6303,0.8262,0.8198,0.8046,0.7919,0.7811,0.7697,0.7619,0.7498,0.7383,0.7221,0.7139,0.7003,0.6851,0.6628,0.6532,0.6421,0.6392,0.6375,0.637,0.6368,0.6377,0.6405,0.6392,0.6391,0.6391,0.6391,0.639,0,0.8299,0.8194,0.808,0.7911,0.7811,0.7738,0.7596,0.7516,0.7399,0.7266,0.715,0.6992,0.6855,0.6699,0.6551,0.6493,0.6448,0.6459,0.646,0.6438,0.6413,0.6437,0.6498,0.6498,0.6498,0.6498,0.6498,0.6498,0.8306,0.8192,0.8107,0.7937,0.7832,0.7699,0.7624,0.7518,0.7411,0.7241,0.7127,0.7027,0.6883,0.6724,0.6595,0.6552,0.6502,0.6525,0.647,0.6449,0.644,0.6432,0.6453,0.6516,0.6516,0.6503,0.6503,0.6503]},{"header":{"parameterUnit":"m.s-1","parameterCategory":1,"la1":30.2991,"la2":30.254,"lo1":-89.0895,"lo2":-89.0444,"dy":0.0017,"dx":0.0017,"nx":28,"ny":28,"refTime":"2025-07-16T21:00:00:Z","depth":0,"parameterNumber":3,"parameterNumberName":"V-component_of_WINDS"},"data":[0,0,0,0,0,0,0,0,0,0,0,0,0,0,0,0,0,0,0,0,0,0,0,0,0,0,0,0,0,0,0,0,0,0,0,0,0,0,0,0,0,0,0,0,0,0,0,0,0,0,0,0,0,0,0,0,0,0,-4.1661,-4.1664,0,-4.194,-4.1943,-4.1947,-4.1976,-4.1973,-4.197,-4.1967,-4.224,-4.225,-4.2259,0,0,0,0,0,0,0,0,0,0,0,0,0,-4.114,-4.115,-4.166,-4.1664,-4.1668,-4.194,-4.1944,-4.1947,-4.1976,-4.1973,-4.1969,-4.1966,-4.2237,-4.2248,-4.226,0,0,0,0,0,0,0,0,0,0,0,0,0,-4.1387,-4.1153,-4.166,-4.1715,-4.1723,-4.1939,-4.1944,-4.1948,-4.1977,-4.1973,-4.1968,-4.1964,-4.2233,-4.2247,-4.2262,-4.2438,0,0,-4.2307,-4.2314,0,0,0,0,0,0,0,0,-4.1373,-4.1406,-4.1703,-4.1712,-4.1721,-4.1919,-4.186,-4.2112,-4.1978,-4.188,-4.1967,-4.1962,-4.2136,-4.2158,-4.222,-4.2451,-4.2463,-4.2309,-4.2318,-4.2324,-4.2328,0,0,0,0,0,0,0,-4.1356,-4.1394,-4.1771,-4.1708,-4.1718,-4.1722,-4.1752,-4.1908,-4.2028,-4.1888,-4.1891,-4.1924,-4.2139,-4.2205,-4.2226,-4.2467,-4.2308,-4.2321,-4.2331,-4.2336,-4.2858,-4.2863,0,0,0,0,0,0,-4.133,-4.138,-4.1762,-4.1779,-4.1533,-4.1735,-4.1769,-4.1859,-4.2026,-4.2048,-4.1928,-4.1925,-4.2182,-4.2209,-4.2236,-4.2455,-4.2324,-4.2338,-4.2346,-4.2853,-4.2859,-4.2865,0,0,0,0,0,0,-4.1319,-4.1364,-4.1751,-4.1581,-4.163,-4.1749,-4.185,-4.1867,-4.1933,-4.2056,-4.2076,-4.1974,-4.218,-4.2215,-4.2389,-4.2465,-4.2345,-4.2358,-4.2847,-4.2855,-4.2862,-4.2894,0,0,0,0,0,0,-4.1304,-4.136,-4.1431,-4.1582,-4.1639,-4.1903,-4.1854,-4.1876,-4.196,-4.1959,-4.2105,-4.2125,-4.2179,-4.2367,-4.2404,-4.2483,-4.237,-4.2841,-4.2851,-4.2859,-4.2887,-4.2902,-4.2914,0,0,0,0,0,-4.1285,-4.1425,-4.1434,-4.148,-4.1731,-4.1907,-4.1939,-4.2003,-4.1966,-4.2037,-4.2116,-4.212,-4.2451,-4.2384,-4.2426,-4.2511,-4.2837,-4.2848,-4.2859,-4.288,-4.2899,-4.2914,0,0,0,0,0,0,-4.1275,-4.1446,-4.1458,-4.1652,-4.1766,-4.1912,-4.2003,-4.202,-4.2143,-4.2136,-4.2205,-4.2238,-4.2409,-4.2477,-4.2401,-4.2691,-4.2639,-4.2659,-4.2641,-4.266,-4.2673,-4.2653,-4.2382,0,0,0,0,0,-4.1296,-4.1429,-4.1569,-4.1727,-4.1784,-4.1884,-4.1963,-4.2003,-4.2121,-4.2168,-4.2259,-4.2371,-4.25,-4.2583,-4.2708,-4.2896,-4.2928,-4.2975,-4.2989,-4.2999,-4.3016,-4.3121,-4.3144,-4.2901,-4.2901,-4.2901,0,0,-4.1339,-4.1449,-4.1528,-4.1728,-4.182,-4.1953,-4.1924,-4.2065,-4.2164,-4.2187,-4.236,-4.2431,-4.2559,-4.2742,-4.2826,-4.2803,-4.309,-4.3014,-4.3021,-4.3032,-4.3135,-4.3158,-4.3178,-4.2909,-4.2907,-4.2906,0,0,-4.1487,-4.1583,-4.1727,-4.1821,-4.1964,-4.203,-4.2064,-4.2209,-4.2259,-4.2434,-4.2455,-4.2571,-4.2791,-4.2883,-4.2958,-4.3142,-4.3151,-4.3181,-4.3253,-4.3355,-4.3374,-4.3391,-4.3458,-4.3481,-4.3196,-4.3197,-4.3197,0,-4.1521,-4.1727,-4.1796,-4.194,-4.2027,-4.2059,-4.2203,-4.229,-4.2464,-4.2521,-4.2494,-4.2774,-4.2862,-4.3067,-4.3113,-4.3172,-4.3212,-4.3165,-4.3366,-4.3384,-4.3401,-4.3466,-4.3491,-4.3199,-4.3199,-4.3199,-4.3199,0,-4.1763,-4.1905,-4.2003,-4.2177,-4.2274,-4.2416,-4.2504,-4.2594,-4.2625,-4.2693,-4.2869,-4.2977,-4.3126,-4.3177,-4.3206,-4.3387,-4.3368,-4.3353,-4.3302,-4.3427,-4.3488,-4.3513,-4.3204,-4.3203,-4.3202,-4.3201,0,0,-4.1912,-4.2125,-4.2159,-4.224,-4.24,-4.2509,-4.2651,-4.2802,-4.2878,-4.2996,-4.3117,-4.3304,-4.3292,-4.3377,-4.3417,-4.3506,-4.3647,-4.348,-4.3484,-4.3508,-4.3852,-4.3864,-4.3892,-4.3653,-4.3658,-4.3662,-4.3842,0,-4.2079,-4.234,-4.2408,-4.2628,-4.276,-4.2794,-4.2918,-4.3028,-4.3095,-4.3213,-4.3284,-4.3417,-4.3391,-4.3443,-4.3532,-4.3611,-4.3717,-4.3598,-4.3763,-4.3768,-4.3732,-4.3924,-4.3937,-4.4102,-4.3866,-4.387,-4.3873,0,-4.2309,-4.2439,-4.2675,-4.2821,-4.2878,-4.2989,-4.3134,-4.3247,-4.3371,-4.3414,-4.3511,-4.3543,-4.3689,-4.3631,-4.3833,-4.3751,-4.3822,-4.387,-4.3878,-4.3896,-4.3829,-4.3948,-4.4156,-4.4181,-4.3912,-4.3909,-4.3906,0,-4.2396,-4.2629,-4.2801,-4.2868,-4.3041,-4.3119,-4.3194,-4.3315,-4.3401,-4.3525,-4.3582,-4.3719,-4.3794,-4.3898,-4.3965,-4.3916,-4.4162,-4.4108,-4.4199,-4.4198,-4.425,-4.4246,-4.4473,-4.4294,-4.4293,-4.4293,-4.4292,0,-4.2577,-4.2719,-4.2843,-4.2949,-4.3109,-4.3183,-4.3339,-4.3414,-4.3521,-4.364,-4.3674,-4.3783,-4.3865,-4.3984,-4.4036,-4.4196,-4.4229,-4.4265,-4.4278,-4.4264,-4.4259,-4.4312,-4.4302,-4.43,-4.4298,-4.4297,-4.4296,0,-4.2701,-4.279,-4.298,-4.313,-4.3171,-4.3283,-4.341,-4.3512,-4.358,-4.373,-4.3769,-4.3875,-4.4017,-4.4095,-4.4271,-4.4306,-4.4486,-4.4491,-4.4446,-4.4451,-4.4539,-4.453,-4.4808,-4.4849,-4.4641,-4.4642,-4.4644,0,-4.2812,-4.2924,-4.3088,-4.3172,-4.3251,-4.3385,-4.3475,-4.3551,-4.3643,-4.3795,-4.3878,-4.4024,-4.4145,-4.4371,-4.446,-4.4596,-4.4605,-4.4694,-4.4625,-4.4608,-4.4608,-4.4602,-4.4613,-4.4705,-4.4707,-4.4709,-4.471,0,-4.2999,-4.3038,-4.3169,-4.3317,-4.3425,-4.3544,-4.366,-4.3726,-4.3821,-4.3921,-4.4071,-4.4165,-4.4349,-4.4493,-4.4636,-4.4708,-4.4725,-4.4731,-4.476,-4.4747,-4.4717,-4.4736,-4.448,-4.4724,-4.4723,-4.4722,-4.4721,-4.4721,-4.3121,-4.3223,-4.3356,-4.3501,-4.3598,-4.3707,-4.3812,-4.3895,-4.4023,-4.4183,-4.4218,-4.4375,-4.4496,-4.4691,-4.4767,-4.4889,-4.4871,-4.4912,-4.4923,-4.4932,-4.4937,-4.4697,-4.4915,-4.4914,-4.4914,-4.4914,-4.4914,0,-4.3311,-4.3399,-4.3533,-4.3698,-4.3812,-4.3823,-4.3953,-4.4046,-4.4186,-4.43,-4.442,-4.4591,-4.4731,-4.4833,-4.4975,-4.5053,-4.5064,-4.5088,-4.5083,-4.51,-4.4943,-4.4906,-4.5076,-4.5076,-4.5076,-4.5076,-4.5076,-4.5076,-4.3424,-4.3598,-4.3653,-4.3874,-4.3959,-4.4119,-4.4193,-4.4292,-4.4384,-4.4576,-4.4695,-4.4762,-4.4871,-4.5021,-4.5149,-4.5175,-4.5226,-4.5249,-4.5275,-4.5128,-4.511,-4.5094,-4.5059,-4.5259,-4.5259,-4.5422,-4.5423,-4.5424]}]]